• In Hungary
  • List of Countries
  • For 7 days
  • Water Temperature
  • Satellite Maps
  • Weather Map
  • News
  • Weather Widgets
  • user-avatar
    Login

    Hourly Weather Probudzhennya

    Today, 16 October, Tuesday

    Time Temperature Precipitation Wind Pressure Humidity
    00:00 +14°C° 0 mm 3 mps 750 mmHg 62%
    01:00 +14°C° 0 mm 3 mps 750 mmHg 64%
    02:00 +15°C° 0 mm 2 mps 749 mmHg 65%
    03:00 +15°C° 0 mm 2 mps 749 mmHg 67%
    04:00 +13°C° 0 mm 3 mps 750 mmHg 69%
    05:00 +13°C° 0 mm 3 mps 750 mmHg 70%
    06:00 +14°C° 0 mm 3 mps 750 mmHg 67%
    07:00 +16°C° 0 mm 3 mps 750 mmHg 64%
    08:00 +18°C° 0 mm 4 mps 750 mmHg 60%
    09:00 +19°C° 0 mm 4 mps 750 mmHg 55%
    10:00 +21°C° 0 mm 4 mps 750 mmHg 50%
    11:00 +22°C° 0 mm 4 mps 750 mmHg 45%
    12:00 +23°C° 0 mm 5 mps 750 mmHg 43%
    13:00 +23°C° 0 mm 5 mps 750 mmHg 41%
    14:00 +25°C° 0 mm 5 mps 750 mmHg 39%
    15:00 +22°C° 0 mm 4 mps 749 mmHg 43%
    16:00 +21°C° 0 mm 3 mps 749 mmHg 48%
    17:00 +19°C° 0 mm 3 mps 749 mmHg 52%
    18:00 +18°C° 0 mm 3 mps 749 mmHg 55%
    19:00 +18°C° 0 mm 3 mps 749 mmHg 58%
    20:00 +17°C° 0 mm 3 mps 749 mmHg 61%
    21:00 +16°C° 0 mm 3 mps 749 mmHg 63%
    22:00 +16°C° 0 mm 3 mps 749 mmHg 65%
    23:00 +16°C° 0 mm 3 mps 749 mmHg 68%

    Tomorrow, 17 October, Wednesday

    Time Temperature Precipitation Wind Pressure Humidity
    00:00 +14°C° 0 mm 3 mps 749 mmHg 70%
    01:00 +14°C° 0 mm 3 mps 749 mmHg 72%
    02:00 +13°C° 0 mm 3 mps 749 mmHg 74%
    03:00 +13°C° 0 mm 3 mps 748 mmHg 76%
    04:00 +13°C° 0 mm 4 mps 748 mmHg 78%
    05:00 +12°C° 0 mm 4 mps 748 mmHg 80%
    06:00 +13°C° 0 mm 4 mps 748 mmHg 75%
    07:00 +14°C° 0 mm 4 mps 748 mmHg 70%
    08:00 +16°C° 0 mm 5 mps 749 mmHg 65%
    09:00 +17°C° 0 mm 5 mps 749 mmHg 58%
    10:00 +20°C° 0 mm 5 mps 749 mmHg 51%
    11:00 +21°C° 0 mm 5 mps 749 mmHg 44%
    12:00 +22°C° 0 mm 5 mps 748 mmHg 41%
    13:00 +22°C° 0 mm 5 mps 748 mmHg 39%
    14:00 +23°C° 0 mm 5 mps 748 mmHg 36%
    15:00 +21°C° 0 mm 4 mps 747 mmHg 39%
    16:00 +20°C° 0 mm 4 mps 747 mmHg 43%
    17:00 +19°C° 0 mm 3 mps 747 mmHg 46%
    18:00 +18°C° 0 mm 3 mps 747 mmHg 48%
    19:00 +17°C° 0 mm 3 mps 747 mmHg 50%
    20:00 +16°C° 0 mm 3 mps 747 mmHg 52%
    21:00 +16°C° 0 mm 3 mps 747 mmHg 54%
    22:00 +14°C° 0 mm 3 mps 747 mmHg 55%
    23:00 +14°C° 0 mm 3 mps 747 mmHg 57%

    Day after tomorrow, 18 October, Thursday

    Time Temperature Precipitation Wind Pressure Humidity
    00:00 +13°C° 0 mm 3 mps 747 mmHg 58%
    01:00 +13°C° 0 mm 3 mps 747 mmHg 60%
    02:00 +13°C° 0 mm 3 mps 747 mmHg 61%
    03:00 +12°C° 0 mm 3 mps 747 mmHg 62%
    04:00 +12°C° 0 mm 4 mps 746 mmHg 63%
    05:00 +12°C° 0 mm 4 mps 746 mmHg 64%
    06:00 +13°C° 0 mm 4 mps 746 mmHg 60%
    07:00 +14°C° 0 mm 5 mps 746 mmHg 56%
    08:00 +15°C° 0 mm 5 mps 747 mmHg 53%
    09:00 +17°C° 0 mm 5 mps 747 mmHg 47%
    10:00 +20°C° 0 mm 5 mps 746 mmHg 42%
    11:00 +21°C° 0 mm 6 mps 746 mmHg 37%
    12:00 +22°C° 0 mm 6 mps 746 mmHg 36%
    13:00 +22°C° 0 mm 6 mps 746 mmHg 34%
    14:00 +23°C° 0 mm 6 mps 745 mmHg 32%
    15:00 +21°C° 0 mm 5 mps 745 mmHg 36%
    16:00 +20°C° 0 mm 4 mps 745 mmHg 39%
    17:00 +18°C° 0 mm 4 mps 745 mmHg 43%
    18:00 +18°C° 0 mm 4 mps 745 mmHg 44%
    19:00 +17°C° 0 mm 4 mps 745 mmHg 46%
    20:00 +17°C° 0 mm 4 mps 745 mmHg 48%
    21:00 +15°C° 0 mm 4 mps 744 mmHg 50%
    22:00 +15°C° 0 mm 4 mps 744 mmHg 53%
    23:00 +14°C° 0 mm 4 mps 744 mmHg 55%

    19 October, Friday

    Time Temperature Precipitation Wind Pressure Humidity
    00:00 +14°C° 0 mm 4 mps 744 mmHg 57%
    01:00 +13°C° 0 mm 4 mps 744 mmHg 59%
    02:00 +13°C° 0 mm 4 mps 744 mmHg 60%
    03:00 +12°C° 0 mm 4 mps 744 mmHg 62%
    04:00 +12°C° 0 mm 4 mps 743 mmHg 64%
    05:00 +12°C° 0 mm 4 mps 743 mmHg 65%
    06:00 +12°C° 0 mm 5 mps 743 mmHg 63%
    07:00 +13°C° 0 mm 5 mps 743 mmHg 61%
    08:00 +14°C° 0 mm 5 mps 743 mmHg 59%
    09:00 +16°C° 0 mm 5 mps 743 mmHg 56%
    10:00 +17°C° 0 mm 5 mps 743 mmHg 52%
    11:00 +19°C° 0 mm 5 mps 743 mmHg 49%
    12:00 +20°C° 0 mm 5 mps 742 mmHg 48%
    13:00 +20°C° 0 mm 5 mps 742 mmHg 46%
    14:00 +21°C° 0 mm 4 mps 742 mmHg 45%
    15:00 +19°C° 0 mm 3 mps 742 mmHg 49%
    16:00 +18°C° 0 mm 3 mps 741 mmHg 53%
    17:00 +17°C° 0 mm 2 mps 741 mmHg 58%
    18:00 +16°C° 0 mm 2 mps 741 mmHg 60%
    19:00 +16°C° 0 mm 1 mps 741 mmHg 62%
    20:00 +15°C° 0 mm 1 mps 741 mmHg 64%
    21:00 +15°C° 0 mm 1 mps 741 mmHg 66%
    22:00 +15°C° 0 mm 1 mps 740 mmHg 68%
    23:00 +15°C° 0 mm 1 mps 740 mmHg 70%

    20 October, Saturday

    Time Temperature Precipitation Wind Pressure Humidity
    00:00 +14°C° 0.1 mm 1 mps 740 mmHg 71%
    01:00 +14°C° 0.1 mm 1 mps 740 mmHg 72%
    02:00 +14°C° 0.1 mm 1 mps 740 mmHg 73%
    03:00 +14°C° 0.1 mm 1 mps 740 mmHg 74%
    04:00 +14°C° 0.1 mm 1 mps 740 mmHg 74%
    05:00 +14°C° 0.1 mm 1 mps 740 mmHg 75%
    06:00 +14°C° 0 mm 1 mps 740 mmHg 72%
    07:00 +15°C° 0 mm 1 mps 740 mmHg 69%
    08:00 +16°C° 0 mm 1 mps 740 mmHg 65%
    09:00 +18°C° 0 mm 1 mps 740 mmHg 60%
    10:00 +19°C° 0 mm 2 mps 740 mmHg 54%
    11:00 +20°C° 0 mm 2 mps 740 mmHg 48%
    12:00 +21°C° 0 mm 2 mps 740 mmHg 46%
    13:00 +21°C° 0 mm 2 mps 740 mmHg 43%
    14:00 +22°C° 0 mm 3 mps 740 mmHg 41%
    15:00 +20°C° 0 mm 2 mps 740 mmHg 45%
    16:00 +19°C° 0 mm 2 mps 740 mmHg 49%
    17:00 +18°C° 0 mm 2 mps 740 mmHg 52%
    18:00 +17°C° 0 mm 2 mps 740 mmHg 54%
    19:00 +17°C° 0 mm 2 mps 740 mmHg 56%
    20:00 +16°C° 0 mm 2 mps 740 mmHg 58%
    21:00 +16°C° 0 mm 2 mps 740 mmHg 59%
    22:00 +15°C° 0 mm 1 mps 740 mmHg 60%
    23:00 +15°C° 0 mm 1 mps 740 mmHg 61%

    21 October, Sunday

    Time Temperature Precipitation Wind Pressure Humidity
    00:00 +14°C° 0 mm 1 mps 740 mmHg 62%
    01:00 +14°C° 0 mm 2 mps 740 mmHg 64%
    02:00 +14°C° 0 mm 2 mps 740 mmHg 65%
    03:00 +14°C° 0 mm 2 mps 740 mmHg 65%
    04:00 +13°C° 0 mm 2 mps 740 mmHg 66%
    05:00 +13°C° 0 mm 2 mps 740 mmHg 66%
    06:00 +14°C° 0 mm 2 mps 740 mmHg 65%
    07:00 +14°C° 0 mm 2 mps 741 mmHg 64%
    08:00 +15°C° 0 mm 2 mps 741 mmHg 63%
    09:00 +16°C° 0 mm 2 mps 741 mmHg 59%
    10:00 +18°C° 0 mm 3 mps 741 mmHg 54%
    11:00 +19°C° 0 mm 3 mps 741 mmHg 50%
    12:00 +19°C° 0 mm 3 mps 741 mmHg 48%
    13:00 +19°C° 0 mm 3 mps 741 mmHg 47%
    14:00 +20°C° 0 mm 4 mps 741 mmHg 45%
    15:00 +19°C° 0 mm 4 mps 741 mmHg 49%
    16:00 +18°C° 0 mm 3 mps 741 mmHg 52%
    17:00 +17°C° 0 mm 3 mps 741 mmHg 56%
    18:00 +16°C° 0 mm 3 mps 742 mmHg 59%
    19:00 +14°C° 0 mm 3 mps 742 mmHg 62%
    20:00 +13°C° 0 mm 3 mps 742 mmHg 66%
    21:00 +14°C° 0 mm 2 mps 742 mmHg 70%
    22:00 +13°C° 0 mm 2 mps 742 mmHg 75%
    23:00 +12°C° 0 mm 2 mps 742 mmHg 79%
    Show more